Location: Breitberg
(46.9333°N, 15.6500°E)
Time: 05:48:56
(UTC+00:00)

Daily predictions for brighter satellites

Satellite Brightness Start Highest point End
(mag) Time Altitude Azimuth Time Altitude Azimuth Time Altitude Azimuth
Okean 1 Rocket 3.8 00:09:30 49° NNW 00:09:30 49° NNW 00:12:52 10° N
SJ 16-02 1.9 00:09:53 55° N 00:09:53 55° N 00:13:26 10° NNE
SL-16 R/B 2.6 00:09:08 10° NW 00:13:48 48° W 00:13:48 48° W
Cosmos 2263 Rocket 3.1 00:14:58 34° ESE 00:15:25 34° ESE 00:20:23 10° NE
SL-14 R/B 4.4 00:14:31 10° N 00:17:08 41° N 00:17:08 41° N
Cosmos 2142 Rocket 4.4 00:17:47 65° SW 00:18:38 74° W 00:25:04 10° N
Cosmos 724 4.3 00:13:09 10° NW 00:19:12 82° NE 00:20:59 49° SE
MOZ.5/SAFIR/RUBIN 5/SL-8 3.8 00:22:13 78° N 00:22:13 78° N 00:26:38 10° NNW
SL-19 R/B 4.1 00:20:29 10° NNE 00:26:19 87° WNW 00:26:52 74° SSW
Cosmos 1937 Rocket 3.5 00:27:08 67° SE 00:27:22 68° ESE 00:32:41 10° NNE
CZ-4C R/B 4.3 00:29:47 41° NNE 00:29:47 41° NNE 00:32:28 10° N
Cosmos 990 Rocket 3.8 00:29:47 80° W 00:29:53 80° WNW 00:35:05 10° NNE
Cosmos 2297 Rocket 3.5 00:28:55 26° WNW 00:30:28 30° NW 00:35:25 10° N
Okean 1-7 Rocket 3.7 00:27:04 10° N 00:31:14 71° NE 00:31:14 71° NE
ADEOS II 3.6 00:27:25 10° NE 00:31:52 27° E 00:33:35 23° SE
Cosmos 1455 Rocket 3.2 00:35:30 70° ENE 00:35:30 70° ENE 00:39:44 10° NNE
CZ-4B R/B 4.5 00:31:37 10° NNE 00:35:56 33° E 00:36:44 31° ESE
Cosmos 2266 Rocket 4.0 00:30:10 10° N 00:36:32 78° E 00:38:25 48° SSE
ATLAS CENTAUR R/B 3.4 00:37:35 19° ESE 00:37:35 19° ESE 00:39:52 10° ENE
Cosmos 2112 Rocket 4.5 00:32:34 10° NNW 00:36:46 45° WNW 00:36:46 45° WNW
USA 229 DEB 3.5 00:36:45 58° SW 00:38:14 90° S 00:45:10 10° NE
USA 229 3.5 00:36:53 58° SW 00:38:21 89° ESE 00:45:16 10° NE
UNK 3.6 00:38:59 89° NNE 00:38:59 89° NNE 00:43:41 10° NNW
Cosmos 1726 3.7 00:39:49 28° E 00:39:49 28° E 00:42:46 10° NNE
Cosmos 1898 Rocket 3.5 00:43:57 64° W 00:44:21 67° WNW 00:49:33 10° NNE
GEOS 3 Rocket 3.8 00:41:12 10° NE 00:46:34 60° SE 00:47:19 55° SSE
NOSS 2-3 (C) 3.6 00:48:09 76° ESE 00:48:09 76° ESE 00:53:08 10° NE
Cosmos 1892 Rocket 4.1 00:44:14 10° NNW 00:47:51 48° NW 00:47:51 48° NW
Meteor 1-24 Rocket 3.8 00:43:58 10° NNW 00:49:06 51° W 00:49:06 51° W
NOSS 3-1 (A) 3.1 00:48:36 62° SSW 00:49:35 81° SE 00:56:00 10° NE
IRAS Rocket 4.1 00:49:56 62° SSW 00:50:43 71° WSW 00:56:22 10° NNW
ARIANE 5 R/B 4.5 00:48:41 10° NE 00:52:46 22° E 00:55:51 14° SE
Cosmos 1603 3.6 00:49:35 10° NNW 00:55:22 86° WSW 00:57:17 44° SSE
Cosmos 1461 4.3 00:55:28 29° WNW 00:56:17 31° NW 01:00:25 10° NNE
CZ-2D R/B 2.2 01:01:17 10° N 01:06:46 70° WNW 01:08:00 52° SW
Cosmos 1340 Rocket 3.0 01:07:07 60° NW 01:07:07 60° NW 01:10:41 10° N
Cosmos 1758 3.3 01:08:43 69° NW 01:08:43 69° NW 01:12:30 10° N
SL-16 R/B 2.7 01:09:26 45° SW 01:10:42 52° W 01:16:49 10° NNW
Timation 1 Rocket 4.5 01:10:12 44° WSW 01:11:56 62° WNW 01:17:52 10° NNE
USA 215 4.4 01:08:11 10° ENE 01:13:50 30° SE 01:16:30 23° SSE
Cosmos 1943 3.0 01:08:17 10° NNW 01:13:54 74° WSW 01:16:10 37° S
Cosmos 1626 4.4 01:14:18 10° NW 01:15:17 14° NW 01:15:17 14° NW
Cosmos 1655 Rocket 4.4 01:11:30 10° NNW 01:17:18 41° W 01:18:27 38° WSW
Cosmos 2227 Rocket 4.3 01:18:31 12° WNW 01:21:38 18° NW 01:25:23 10° N
Cosmos 1544 Rocket 3.8 01:22:37 51° W 01:22:59 52° WNW 01:27:22 10° N
IRS-1D 3.5 01:18:42 10° NNE 01:23:50 84° ESE 01:25:39 42° S
Cosmos 1470 3.6 01:24:19 37° WNW 01:24:19 37° WNW 01:27:51 10° N
Cosmos 1953 2.2 01:23:54 68° S 01:24:24 88° E 01:28:30 10° N
NPP 3.8 01:20:15 10° N 01:25:32 57° WNW 01:27:04 42° WSW
AQUA 4.1 01:28:39 10° N 01:33:18 54° WNW 01:34:26 43° WSW
Atlas Centaur 2 4.1 01:38:02 17° SSE 01:38:13 17° SSE 01:42:28 10° SE
Resurs 1-4 Rocket 2.9 01:35:14 10° N 01:40:01 36° WNW 01:41:36 29° W
Meteor 2-16 Rocket 4.4 01:35:10 10° N 01:41:22 88° ENE 01:46:34 15° S
Cosmos 1602 Rocket 3.6 01:39:16 10° NNW 01:43:32 55° W 01:44:26 46° SW
Meteor 2-21 Rocket 4.3 01:38:06 10° NNW 01:44:09 75° W 01:48:18 21° S
Cosmos 1606 Rocket 4.4 01:42:16 19° SSE 01:45:09 47° E 01:49:26 10° NNE
USA 267 4.1 01:40:57 10° E 01:47:13 51° NNE 01:53:30 10° NW
SJ 16-02 3.8 01:47:05 10° WNW 01:48:24 11° NW 01:49:42 10° NNW
IDEFIX/ARIANE 42P 3.5 01:43:55 10° NNE 01:48:56 45° E 01:53:20 13° S
Cosmos 1048 Rocket 3.9 01:52:01 10° NNW 01:57:06 61° WSW 02:01:22 15° S
Cosmos 1908 3.1 01:56:15 38° SSW 01:57:40 82° W 02:01:37 10° N
IRS-P3 4.1 01:53:27 10° NNE 01:58:48 76° WNW 02:01:51 26° SSW
Cosmos 2263 Rocket 2.8 01:56:40 26° WSW 01:59:14 42° NW 02:04:32 10° NNE
Cosmos 1726 Rocket 4.2 01:56:25 16° SSE 01:59:51 53° E 02:04:12 10° NNE
Cosmos 2298 Rocket 4.2 01:57:57 31° SW 02:00:25 59° WNW 02:05:43 10° NNE
Cosmos 2228 3.2 01:59:31 22° S 02:02:19 72° E 02:06:44 10° NNE
Meteor 1-16 Rocket 4.2 02:01:57 27° SSW 02:04:58 65° WNW 02:10:35 10° N
Meteor 1-28 Rocket 3.3 02:06:34 30° SSW 02:08:11 55° W 02:11:57 10° NNW
SL-08 R/B 3.5 02:05:26 18° S 02:08:59 58° WSW 02:13:53 10° NNW
ADEOS II 2.6 02:06:44 10° N 02:11:45 46° WNW 02:14:31 24° SW
Cosmos 1356 Rocket 3.6 02:10:31 18° S 02:13:32 70° E 02:17:37 10° NNE
Spot 4 Rocket 4.1 02:08:27 10° NNE 02:13:39 76° ESE 02:18:03 14° S
CZ-2C R/B 3.6 02:10:08 10° NNE 02:13:50 46° E 02:17:08 12° S
CZ-4B R/B 4.3 02:10:24 10° N 02:14:35 31° WNW 02:16:40 22° WSW
Cosmos 1726 3.6 02:14:19 20° W 02:14:49 21° WNW 02:17:38 10° NNW
Cosmos 2285 Rocket 4.1 02:10:59 23° SW 02:14:54 61° WNW 02:21:09 10° NNE
ATLAS CENTAUR R/B 1.7 02:13:46 28° WSW 02:15:36 51° NW 02:19:25 10° NNE
Cosmos 1900 4.3 02:11:24 10° NW 02:16:31 66° WSW 02:21:36 10° SSE
Cosmos 1300 3.3 02:14:37 12° S 02:17:58 55° E 02:21:43 10° NNE
Cosmos 1269 Rocket 4.1 02:13:42 10° NNW 02:19:02 81° ENE 02:24:20 10° SSE
Cosmos 1553 Rocket 3.9 02:15:29 18° SSW 02:20:10 70° W 02:26:20 10° N
NOSS 2-2 (C) 4.1 02:18:19 19° S 02:20:29 40° ESE 02:24:06 10° NE
Cosmos 1844 Rocket 2.8 02:17:42 17° SSW 02:22:02 75° ESE 02:27:37 10° NNE
ERS-2 3.1 02:18:33 10° SSE 02:22:04 49° ENE 02:25:37 10° N
NOSS 8 (H) 4.0 02:24:25 30° SW 02:25:46 84° NW 02:28:49 10° NE
CZ-4C R/B 3.1 02:22:32 10° SSE 02:25:49 72° ENE 02:29:14 10° N
Meteor 1-11 4.2 02:20:12 10° NNW 02:25:54 68° W 02:31:30 10° S
SL-08 ROCKET BODY 4.4 02:23:05 10° NNW 02:29:06 69° W 02:34:57 10° S
CSL-04 DEB 4.2 02:26:21 10° SSE 02:30:16 81° WSW 02:34:16 10° NNW
Cosmos 1745 Rocket 4.0 02:24:36 10° NNW 02:30:52 71° W 02:37:00 10° S
Cosmos 2084 4.3 02:28:47 19° WSW 02:31:34 40° NW 02:35:48 10° NNE
ARIANE 5 R/B 2.8 02:27:04 10° N 02:32:11 55° WNW 02:36:11 16° SW
Lacrosse 5 rocket 4.0 02:30:58 10° SSE 02:33:25 14° ESE 02:35:53 10° E
Cosmos 1758 Rocket 4.3 02:31:50 10° NNW 02:35:40 31° W 02:38:14 17° SW
SeaSat 1 4.2 02:31:49 10° NE 02:36:06 29° ESE 02:40:21 10° SSE
Meteor 2-15 4.4 02:32:26 10° S 02:38:29 85° W 02:44:36 10° N
Cosmos 1867 4.2 02:36:34 10° NNW 02:42:00 61° NE 02:47:24 10° SE
CZ-2D R/B 4.2 02:43:27 10° NNW 02:45:50 13° NW 02:48:12 10° WNW
Cosmos 2058 Rocket 3.0 02:41:51 10° SSW 02:46:18 81° W 02:50:45 10° N
H-2A R/B 1.9 02:42:54 10° S 02:46:57 63° WSW 02:51:03 10° NNW
S3M 4.2 02:45:48 10° SSW 02:52:05 57° WNW 02:58:22 10° N
CZ-2C R/B 3.0 02:48:18 10° NNE 02:52:50 54° E 02:57:26 10° S
Cosmos 2058 3.9 02:49:35 10° N 02:53:41 51° ENE 02:57:46 10° SSE
Landsat 5 3.5 02:52:00 10° S 02:55:55 54° W 03:00:02 10° NNW
USA 215 3.3 02:50:45 10° NE 02:57:20 88° NW 03:03:50 10° WSW
Cosmos 1408 4.3 02:54:25 10° N 02:57:55 38° ENE 03:01:23 10° SE
Cosmos 1125 Rocket 4.4 02:54:00 13° WSW 02:58:07 34° WNW 03:02:56 10° N
In-Cosmos 22 Rocket 4.4 02:52:18 10° N 02:58:11 86° E 03:03:58 10° S
Cosmos 1892 2.9 03:00:46 10° N 03:04:37 76° E 03:08:25 10° SSE
CZ-4B R/B 2.1 03:01:40 10° SSE 03:04:48 55° ENE 03:07:52 10° N
Cosmos 1953 Rocket 4.5 03:01:47 10° NNW 03:05:41 30° W 03:09:33 10° SSW
Cosmos 1709 Rocket 4.0 03:04:33 10° NNW 03:10:38 63° W 03:16:38 10° S
ALOS 4.1 03:08:50 10° NNE 03:13:05 33° E 03:17:18 10° SSE
PAYLOAD A 4.1 03:10:01 10° NNE 03:15:20 81° WNW 03:20:25 10° SSW
USA 238 DEB 3.9 03:14:51 10° NW 03:22:07 88° SW 03:29:37 10° SE
USA 238 4.0 03:14:57 10° NW 03:22:13 89° SW 03:29:43 10° SE
Atlas Centaur 2 4.2 03:21:40 10° SW 03:26:22 20° S 03:31:35 10° SE
CENTAUR R/B 3.6 03:20:27 10° NW 03:28:26 73° NE 03:37:15 10° SE
